FREGAT DEB, 45847

Orbit data source: Space-Track

FREGAT DEB, 45847 is space debris in LEO originally from a launch on Mon, 18 Jul 2011 UTC launched from the Tyuratam Missile And Space Complex (TTMTR). Debris objects in space refer to the collection of defunct objects orbiting the Earth. Examples of debris include non-operational satellites, rocket bodies, and fragments generated from explosions, collisions, or faulty payload assembly.

Loading next visibility...
Identifier
45847, 2011-037CH
Orbit
LEO
Country
Flag of CISCIS
Related business
Manufacturer
Lavochkin
Mission
Spacecraft
Bus & Motor
Unknown
Mass
Unknown
Launch date (UTC)
2011-07-18 (14 years ago)
Launch vehicle
Unknown
Launch site
Tyuratam Missile And Space Complex (TTMTR)
Object type
Payload
Rocket body
Debris
Shape & HBR
Unknown
Radar Cross Section
Small (<0.1 m²)

Expand to show TLE details & history
Last TLE update: 19 hours ago

TLE from 19 hours ago
0 FREGAT DEB
1 45847U 11037CH  25257.89845347  .00134822  00000-0  99059-2 0  9993
2 45847  51.3993 160.4608 1145405  65.0310 306.5106 13.05942714225220
Epoch: 2025-09-14T21:33Z
TLE epoch observation values (Epoch: 2025-09-14T21:33:46.379Z)
Latitude
-0.00005°
Longitude
-157.09334°
Altitude
791.756 km
Speed
7.675 km/s
True Right ascension
10h 41m 50s
True Declination
0° 00' 00"
Sunlit
Object was in daylight at epoch
Visualization orbit readout
Latitude
Unknown
Longitude
Unknown
Altitude
Unknown
Speed
Unknown
Apparent Right ascension
Unknown
Apparent Declination
Unknown
Sunlit
N/A
Visualization observer readout
Local Sidereal Time
09:26:18
Azimuth
Unknown
Elevation
Unknown
Doppler factor
Unknown
Orbital elements
Apogee altitude
2,111.91 km
Perigee altitude
366.878 km
Semi-major axis
7,617.531 km
Eccentricity
0.11454
Inclination
51.3993°
RAAN
160.4608°
Arg. of periapsis
65.031°
True anomaly
295.0603°
Mean anomaly
306.5106°
Eccentric anomaly
300.8781°
Mean motion
3.26454 °/min
Orbital period
110.28 mins
BSTAR
0.0099059
Loading maneuver chart data...
Computing Atmospheric mass density...
Loading historical data...
Loading historical data...
Loading historical data...
Loading historical data...
Loading historical data...
Loading historical data...
Loading historical data...

Documentation

Showing up to 5 results
|